User: anonymous   Login
Location: Laterina
(43.5167°N, 11.7167°E)
Time: 05:10:20
(UTC+00:00)
Language:

HJ-1C - Orbit

View from above orbital plane
View from above orbital plane
View from above satellite
View from above satellite

Ground track
Ground track

The orbit data is extracted from the following two-line orbital elements,

1 38997U 12064A   20333.60985244 +.00004779 +00000-0 +10999-3 0  9996
2 38997 097.1400 000.6043 0011033 123.3446 352.3292 15.43046749451091
Epoch (UTC): 28 November 2020 14:38:11
Eccentricity: 0.0011033
inclination: 97.1400°
perigee height: 429 km
apogee height: 444 km
right ascension of ascending node: 0.6043°
argument of perigee: 123.3446°
revolutions per day: 15.43046749
mean anomaly at epoch: 352.3292°
orbit number at epoch: 45109

The dashed part of the orbit path shows where the satellite is in the earth's shadow,  

DLR